SKYNET 5B

Last updated on Sat Apr 13 2024 01:02:37 GMT+0100 (British Summer Time)

1 32294U 07056B 24103.56230032 .00000134 00000+0 00000+0 0 9995 2 32294 3.2185 82.7947 0003768 297.1063 48.8799 1.00274746 60215
UTC large
Height (km)
Speed (km/s)
/
Latitude / Longitude
Inclination (degrees)
Orbital Period (minutes)
Azimuth
Elevation
Range (km)
Doppler Factor

Next 0 passes for location: London (51.5072 / 0.1276)

Sorry there are no passes over London.